[[{"header":{"parameterUnit":"m.s-1","parameterCategory":1,"la1":30.2991,"la2":30.254,"lo1":-89.0895,"lo2":-89.0444,"dy":0.0017,"dx":0.0017,"nx":28,"ny":28,"refTime":"2023-07-25T21:00:00:Z","depth":0,"parameterNumber":2,"parameterNumberName":"U-component_of_WINDS"},"data":[0,0,0,0,0,0,0,0,0,0,0,0,0,0,0,0,0,0,0,0,0,0,0,0,0,0,0,0,0,0,0,0,0,0,0,0,0,0,0,0,0,0,0,0,0,0,0,0,0,0,0,0,0,0,0,0,0,0,1.8505,1.8507,0,1.8633,1.8635,1.8636,1.8666,1.8665,1.8665,1.8664,1.8794,1.8798,1.8802,0,0,0,0,0,0,0,0,0,0,0,0,0,1.8286,1.829,1.8505,1.8507,1.8509,1.8633,1.8635,1.8636,1.8666,1.8665,1.8664,1.8663,1.8793,1.8798,1.8803,0,0,0,0,0,0,0,0,0,0,0,0,0,1.8394,1.8291,1.8505,1.8539,1.8543,1.8633,1.8635,1.8637,1.8667,1.8665,1.8664,1.8663,1.8791,1.8797,1.8804,1.8869,0,0,1.8823,1.8826,0,0,0,0,0,0,0,0,1.8388,1.8402,1.8532,1.8536,1.8541,1.8632,1.8605,1.8715,1.8667,1.862,1.8664,1.8662,1.8741,1.8752,1.8779,1.8875,1.8881,1.8824,1.8828,1.883,1.8832,0,0,0,0,0,0,0,1.8381,1.8397,1.8556,1.8534,1.854,1.8547,1.8561,1.8626,1.8686,1.8624,1.8626,1.8641,1.8744,1.8772,1.8782,1.8883,1.8824,1.8829,1.8833,1.8836,1.9037,1.9039,0,0,0,0,0,0,1.8367,1.8391,1.8552,1.856,1.846,1.8552,1.8567,1.8604,1.8685,1.8697,1.8642,1.8642,1.8762,1.8774,1.8786,1.8867,1.883,1.8836,1.884,1.9036,1.9038,1.9039,0,0,0,0,0,0,1.8363,1.8382,1.8547,1.8476,1.8497,1.8557,1.8598,1.8608,1.8636,1.8699,1.871,1.866,1.8761,1.8777,1.8848,1.8872,1.8839,1.8845,1.9034,1.9036,1.9039,1.9029,0,0,0,0,0,0,1.8356,1.838,1.8405,1.8476,1.8501,1.8606,1.86,1.8611,1.8647,1.8648,1.8719,1.873,1.8762,1.8838,1.8854,1.888,1.885,1.9032,1.9035,1.9038,1.9027,1.9031,1.9033,0,0,0,0,0,1.8348,1.8398,1.8407,1.8426,1.8535,1.8607,1.8622,1.8657,1.8649,1.8675,1.8715,1.8727,1.8867,1.8845,1.8863,1.8892,1.9031,1.9034,1.9038,1.9026,1.903,1.9033,0,0,0,0,0,0,1.8328,1.8408,1.8418,1.8492,1.8543,1.8612,1.8646,1.8661,1.8715,1.8713,1.8756,1.8771,1.8838,1.8873,1.8847,1.8958,1.8949,1.8956,1.8933,1.8938,1.8941,1.893,1.8855,0,0,0,0,0,1.8333,1.8385,1.8452,1.8511,1.8536,1.8587,1.862,1.8643,1.8697,1.8718,1.8764,1.8816,1.8871,1.8906,1.8961,1.9033,1.9048,1.9061,1.9064,1.9066,1.9072,1.911,1.9117,1.905,1.905,1.905,0,0,1.8342,1.8392,1.8423,1.8508,1.855,1.8603,1.8604,1.8661,1.87,1.8727,1.8796,1.8831,1.8891,1.8962,1.8996,1.8992,1.9093,1.9071,1.9072,1.9076,1.9115,1.9121,1.9126,1.9053,1.9052,1.9052,0,0,1.8385,1.8429,1.8482,1.8524,1.8587,1.8621,1.8633,1.8701,1.8725,1.8795,1.8815,1.8863,1.8958,1.9,1.9033,1.9092,1.9104,1.9108,1.9124,1.9161,1.9166,1.9171,1.919,1.9197,1.9114,1.9114,1.9114,0,1.8389,1.847,1.8508,1.8563,1.8599,1.8626,1.8679,1.8718,1.8796,1.882,1.8815,1.8934,1.8977,1.9057,1.9071,1.9098,1.9113,1.91,1.9162,1.9168,1.9173,1.9191,1.9199,1.9114,1.9114,1.9114,1.9114,0,1.847,1.8526,1.8561,1.8635,1.8676,1.873,1.8775,1.8811,1.8831,1.8864,1.8934,1.8987,1.9051,1.9072,1.9093,1.9155,1.9151,1.9154,1.9145,1.9178,1.9196,1.9204,1.9114,1.9114,1.9114,1.9114,0,0,1.8504,1.8598,1.861,1.8643,1.8715,1.8758,1.8813,1.8877,1.8906,1.8959,1.9005,1.9084,1.9087,1.9125,1.915,1.9183,1.9224,1.9182,1.9184,1.9187,1.9295,1.9291,1.9298,1.9233,1.9235,1.9236,1.9289,0,1.8555,1.8654,1.8689,1.877,1.8821,1.8847,1.8895,1.8943,1.8976,1.9024,1.906,1.9115,1.9116,1.9138,1.9172,1.9212,1.9246,1.9209,1.9276,1.9277,1.9258,1.9308,1.9305,1.9352,1.9296,1.9298,1.9299,0,1.8628,1.8681,1.8767,1.8831,1.8854,1.8896,1.8956,1.9002,1.9057,1.9078,1.912,1.9143,1.92,1.9189,1.9268,1.9241,1.9271,1.9295,1.9297,1.9304,1.9289,1.9315,1.9368,1.9374,1.9311,1.931,1.9309,0,1.8642,1.8735,1.8798,1.8826,1.8903,1.8931,1.8965,1.9019,1.9054,1.9107,1.913,1.9189,1.922,1.9265,1.9302,1.9291,1.9377,1.9369,1.9396,1.9395,1.9412,1.941,1.9469,1.9434,1.9433,1.9433,1.9433,0,1.8694,1.8746,1.8805,1.8844,1.8902,1.8942,1.8997,1.9032,1.908,1.9125,1.9152,1.9193,1.9241,1.9289,1.9319,1.9379,1.9393,1.9411,1.9418,1.9408,1.9406,1.9427,1.9424,1.9435,1.9435,1.9434,1.9434,0,1.8719,1.8762,1.8832,1.8898,1.8916,1.8956,1.9012,1.905,1.9084,1.9141,1.9157,1.921,1.9267,1.9309,1.9384,1.9404,1.9468,1.9476,1.9449,1.9452,1.9476,1.9472,1.955,1.9561,1.9519,1.9519,1.9519,0,1.8749,1.8789,1.886,1.8892,1.8925,1.8976,1.9012,1.9053,1.9089,1.9155,1.9185,1.9244,1.9294,1.9384,1.9429,1.9486,1.9495,1.9518,1.9503,1.9491,1.9493,1.949,1.9493,1.9519,1.952,1.952,1.952,0,1.8797,1.8816,1.8867,1.8925,1.8967,1.9015,1.9063,1.9088,1.9137,1.9176,1.9235,1.9273,1.9349,1.9407,1.9468,1.9502,1.9519,1.9524,1.9533,1.9523,1.9505,1.9513,1.9453,1.9522,1.9522,1.9522,1.9522,1.9522,1.8825,1.8861,1.8915,1.8971,1.9011,1.9055,1.9094,1.9132,1.9182,1.9247,1.9268,1.9329,1.9382,1.9466,1.95,1.9548,1.9547,1.9561,1.9564,1.9566,1.9565,1.9498,1.956,1.956,1.956,1.956,1.956,0,1.8872,1.8909,1.896,1.9026,1.9069,1.9081,1.9135,1.917,1.9223,1.9272,1.932,1.9387,1.9443,1.9492,1.9551,1.9579,1.9588,1.9593,1.9591,1.9598,1.9563,1.9548,1.9585,1.9585,1.9585,1.9585,1.9585,1.9585,1.8902,1.8963,1.8988,1.9069,1.9105,1.9165,1.9194,1.9234,1.9273,1.9347,1.9394,1.9425,1.9474,1.9536,1.9588,1.9601,1.9621,1.9623,1.9638,1.9604,1.9601,1.9598,1.9584,1.9628,1.9628,1.9669,1.9669,1.967]},{"header":{"parameterUnit":"m.s-1","parameterCategory":1,"la1":30.2991,"la2":30.254,"lo1":-89.0895,"lo2":-89.0444,"dy":0.0017,"dx":0.0017,"nx":28,"ny":28,"refTime":"2023-07-25T21:00:00:Z","depth":0,"parameterNumber":3,"parameterNumberName":"V-component_of_WINDS"},"data":[0,0,0,0,0,0,0,0,0,0,0,0,0,0,0,0,0,0,0,0,0,0,0,0,0,0,0,0,0,0,0,0,0,0,0,0,0,0,0,0,0,0,0,0,0,0,0,0,0,0,0,0,0,0,0,0,0,0,2.7317,2.7316,0,2.7232,2.7231,2.723,2.7138,2.7136,2.7135,2.7134,2.7045,2.7044,2.7043,0,0,0,0,0,0,0,0,0,0,0,0,0,2.7397,2.7396,2.7317,2.7316,2.7315,2.7232,2.7231,2.723,2.7138,2.7136,2.7135,2.7133,2.7046,2.7044,2.7043,0,0,0,0,0,0,0,0,0,0,0,0,0,2.7342,2.7395,2.7317,2.7259,2.7253,2.7233,2.7231,2.723,2.7138,2.7136,2.7134,2.7133,2.7046,2.7045,2.7043,2.7072,0,0,2.7038,2.7037,0,0,0,0,0,0,0,0,2.7345,2.7339,2.7269,2.7263,2.7256,2.7194,2.7227,2.7177,2.7139,2.7182,2.7134,2.7132,2.7096,2.709,2.7079,2.7068,2.7064,2.7038,2.7037,2.7036,2.7035,0,0,0,0,0,0,0,2.7349,2.7342,2.7283,2.7268,2.726,2.7236,2.7226,2.7217,2.7151,2.7178,2.7171,2.7162,2.7092,2.7081,2.7076,2.7063,2.7038,2.7036,2.7035,2.7034,2.7069,2.7071,0,0,0,0,0,0,2.7362,2.7346,2.7286,2.7281,2.7297,2.7237,2.7225,2.7216,2.7151,2.7139,2.7164,2.7158,2.7084,2.7078,2.7072,2.71,2.7036,2.7034,2.7033,2.7067,2.707,2.7072,0,0,0,0,0,0,2.7364,2.7358,2.7289,2.7311,2.7301,2.7237,2.7227,2.7215,2.7203,2.7141,2.7128,2.7164,2.7083,2.7075,2.7072,2.7096,2.7034,2.7032,2.7065,2.7068,2.7071,2.7158,0,0,0,0,0,0,2.7367,2.7359,2.737,2.7313,2.73,2.7292,2.7229,2.7215,2.7201,2.7192,2.7137,2.7126,2.708,2.7075,2.7071,2.7093,2.7031,2.7063,2.7066,2.707,2.7153,2.7164,2.7173,0,0,0,0,0,2.737,2.7398,2.7371,2.7364,2.7313,2.7294,2.7287,2.7234,2.7203,2.7213,2.7172,2.7128,2.7095,2.7076,2.707,2.7092,2.7061,2.7065,2.7069,2.7149,2.7162,2.7173,0,0,0,0,0,0,2.746,2.739,2.7359,2.737,2.7338,2.7278,2.7289,2.725,2.7226,2.7219,2.7154,2.7142,2.7147,2.7119,2.71,2.7115,2.7071,2.7075,2.7133,2.7145,2.7155,2.7161,2.7029,0,0,0,0,0,2.7482,2.7472,2.7411,2.7426,2.7412,2.7354,2.7343,2.7305,2.727,2.7256,2.7215,2.7182,2.7164,2.7153,2.7133,2.7149,2.7134,2.7161,2.7171,2.7179,2.7183,2.7186,2.7197,2.7086,2.7086,2.7086,0,0,2.7525,2.7485,2.7484,2.7443,2.7415,2.7406,2.7343,2.7337,2.7329,2.7255,2.725,2.7219,2.7177,2.7184,2.7184,2.7161,2.721,2.7185,2.7192,2.7191,2.7192,2.7202,2.7212,2.7089,2.7088,2.7088,0,0,2.7599,2.757,2.7578,2.755,2.7508,2.7468,2.7471,2.7416,2.7393,2.7387,2.733,2.732,2.729,2.7262,2.7244,2.7307,2.7264,2.7302,2.7354,2.7359,2.7367,2.7375,2.7395,2.7403,2.7306,2.7306,2.7306,0,2.7659,2.7644,2.7587,2.7584,2.7567,2.75,2.7507,2.7483,2.7436,2.7425,2.7399,2.7359,2.7327,2.7324,2.734,2.7328,2.7327,2.7307,2.7371,2.7378,2.7384,2.7402,2.741,2.7311,2.731,2.731,2.7309,0,2.7718,2.7708,2.772,2.7676,2.766,2.7663,2.7605,2.7596,2.7559,2.7522,2.7516,2.7474,2.7444,2.7441,2.7405,2.7433,2.7419,2.7383,2.7337,2.74,2.7416,2.7423,2.7317,2.7316,2.7314,2.7313,0,0,2.7846,2.7771,2.7776,2.7754,2.7702,2.7693,2.7691,2.7661,2.7654,2.7623,2.7619,2.7595,2.7561,2.754,2.75,2.7505,2.7554,2.7468,2.7465,2.7484,2.758,2.7606,2.7616,2.7526,2.7527,2.7528,2.7583,0,2.791,2.7903,2.7852,2.786,2.7849,2.7784,2.7782,2.7749,2.7715,2.7699,2.766,2.7644,2.7601,2.7588,2.7589,2.7548,2.7572,2.7544,2.7519,2.7519,2.7531,2.7624,2.7652,2.7706,2.7589,2.759,2.7591,0,2.7984,2.7957,2.7964,2.791,2.7903,2.7903,2.787,2.7857,2.7818,2.7792,2.7769,2.7724,2.7716,2.7674,2.7662,2.7644,2.7631,2.7609,2.7609,2.7604,2.7558,2.762,2.7722,2.773,2.7601,2.76,2.7599,0,2.8075,2.8041,2.804,2.8024,2.7961,2.7962,2.7936,2.7894,2.7879,2.7851,2.784,2.7811,2.7795,2.7773,2.772,2.7695,2.7713,2.7667,2.769,2.7691,2.7696,2.7696,2.7796,2.7691,2.7691,2.769,2.769,0,2.815,2.8156,2.808,2.8079,2.8084,2.8024,2.803,2.7997,2.7961,2.7951,2.7894,2.7886,2.7818,2.7802,2.7761,2.7756,2.775,2.7727,2.7716,2.7731,2.7734,2.7721,2.7715,2.7692,2.7692,2.7692,2.7691,0,2.8252,2.8201,2.8196,2.8137,2.8122,2.8128,2.8076,2.8073,2.8034,2.8023,2.8017,2.7956,2.7934,2.788,2.7844,2.7816,2.7821,2.7802,2.7835,2.7828,2.7853,2.785,2.7946,2.7955,2.7846,2.7848,2.7848,0,2.8303,2.8306,2.8247,2.8237,2.8214,2.8198,2.8182,2.8124,2.8109,2.8064,2.8065,2.8038,2.8014,2.7982,2.7933,2.7905,2.7883,2.7919,2.7878,2.7893,2.7881,2.7881,2.788,2.7927,2.7929,2.793,2.7931,0,2.8398,2.8372,2.8352,2.8323,2.8306,2.828,2.8251,2.8245,2.8179,2.8165,2.8142,2.8124,2.8086,2.806,2.8024,2.7995,2.7951,2.7944,2.7947,2.7963,2.7981,2.7969,2.7857,2.7942,2.7941,2.794,2.7939,2.7939,2.8474,2.8473,2.8432,2.8411,2.8382,2.8356,2.8349,2.831,2.829,2.8255,2.8222,2.8202,2.816,2.8107,2.8081,2.8063,2.8041,2.8047,2.8048,2.8049,2.8056,2.7985,2.8057,2.8056,2.8056,2.8056,2.8055,0,2.8565,2.8535,2.8516,2.8477,2.846,2.8421,2.8386,2.8374,2.8358,2.8323,2.83,2.8273,2.8247,2.8196,2.8165,2.8161,2.814,2.8154,2.8153,2.8147,2.8078,2.8078,2.8172,2.8172,2.8172,2.8172,2.8172,2.8172,2.861,2.8605,2.8575,2.8556,2.8525,2.8506,2.8489,2.8463,2.8435,2.8407,2.8386,2.8353,2.8312,2.8277,2.8251,2.8236,2.8227,2.8248,2.8227,2.8163,2.8152,2.8142,2.814,2.8246,2.8247,2.8296,2.8297,2.8297]}]]